Regional Weather Roundup
Issued by NWS

Home | Current Version | Previous Version | Graphics & Text | Print | Product List | Glossary On
Versions: 1 2 3 4 5 6 7 8 9 10 11 12 13 14 15 16 17 18 19 20 21 22 23 24 25 26 27 28 29 30 31 32 33 34 35 36 37 38 39 40 41 42 43 44 45 46 47 48 49 50
000
ASUS43 KMKX 011900
RWRWI

WISCONSIN REGIONAL WEATHER ROUNDUP
NATIONAL WEATHER SERVICE MILWAUKEE/SULLIVAN WI
200 PM CDT MON SEP 01 2014

NOTE: "FAIR" INDICATES FEW OR NO CLOUDS BELOW 12,000 FEET WITH NO
SIGNIFICANT WEATHER AND/OR OBSTRUCTIONS TO VISIBILITY.

WIZ001-002-006>008-014>016-023>028-012000-
NORTHWEST WISCONSIN

CITY           SKY/WX    TMP DP  RH WIND       PRES   REMARKS
SUPERIOR ARPT  MOSUNNY   70  57  63 W12       29.66S
ASHLAND        PTSUNNY   71  60  68 W9        29.66R
HAYWARD        MOSUNNY   69  58  67 SW10G16   29.69R
SIREN          PTSUNNY   72  57  60 W10       29.71R
RICE LAKE      PTSUNNY   72  57  59 W13G18    29.72R
LADYSMITH      PTSUNNY   73  62  68 W15       29.70S
EAU CLAIRE     MOSUNNY   75  60  59 NW13      29.70R
MENOMONIE      PTCLDY    76  60  57 W16       29.71R
NEW RICHMOND   MOSUNNY   73  58  59 W14       29.72S
OSCEOLA        MOSUNNY   73  58  60 W13G18    29.75S
$$

WIZ003>005-009-010-017-018-012000-
NORTH CENTRAL WISCONSIN

CITY           SKY/WX    TMP DP  RH WIND       PRES   REMARKS
WOODRUFF       LGT RAIN  65  60  85 NW12G20   29.67R
RHINELANDER    PTSUNNY   70  61  73 W14       29.67S
EAGLE RIVER    PTSUNNY   70  63  78 SW10G20   29.65S
LAND O LAKES   PTSUNNY   69  61  75 SW8       29.65S
PHILLIPS       CLOUDY    70  62  75 W8        29.67S
TOMAHAWK       MOSUNNY   69  61  75 W8        29.67F
MEDFORD        PTSUNNY   69  62  80 W8        29.68S
MERRILL        MOSUNNY   70  66  88 W10       29.67R
$$

WIZ029-030-035-036-043>047-012000-
CENTRAL WISCONSIN

CITY           SKY/WX    TMP DP  RH WIND       PRES   REMARKS
WAUSAU         LGT RAIN  70  63  78 SW12G21   29.67S
MOSINEE        PTSUNNY   70  66  88 SW13      29.69
MARSHFIELD     MOSUNNY   71  64  78 W9        29.69S
STEVENS POINT  CLOUDY    69  63  81 W13G22    29.69R
WAUPACA        CLOUDY    71  68  92 SW7       29.69R
WAUTOMA        NOT AVBL
WISC RAPIDS    PTSUNNY   76  64  66 W14       29.70S
CAMP DOUGLAS   NOT AVBL
$$

WIZ011>013-019>022-031-037>040-048>050-012000-
NORTHEAST WISCONSIN

CITY           SKY/WX    TMP DP  RH WIND       PRES   REMARKS
ANTIGO         MOSUNNY   71  63  73 SW16      29.66F
STURGEON BAY   CLOUDY    72  64  78 SW16G23   29.66S
GREEN BAY      LGT RAIN  71  67  87 SW12      29.67F
MANITOWOC      NOT AVBL
APPLETON       DRIZZLE   70  66  88 SW13      29.69F FOG
CLINTONVILLE   CLOUDY    70  64  83 SW13      29.67S
OSHKOSH        CLOUDY    72  65  78 W13G21    29.69S
$$

WIZ032>034-041-042-053>061-012000-
SOUTHWEST WISCONSIN

CITY           SKY/WX    TMP DP  RH WIND       PRES   REMARKS
LA CROSSE      LGT RAIN  68  62  81 NW16G26   29.73R
SPARTA         PTSUNNY   73  63  70 W8        29.71R
VIROQUA        MOCLDY    75  66  74 W12G17    29.74R
BOSCOBEL       MOSUNNY   79  67  66 SW9       29.73S HX  81
PRAIRIE DU CHI MOSUNNY   78  64  61 SW9       29.73R HX  80
PLATTEVILLE    PTSUNNY   76  67  75 W15G22    29.76S
$$

WIZ056-057-062-063-064-067-068-012000-
SOUTH CENTRAL WISCONSIN

CITY           SKY/WX    TMP DP  RH WIND       PRES   REMARKS
BARABOO/DELLS  CLOUDY    71  64  78 SW8G17    29.72S
LONE ROCK      CLOUDY    78  66  66 W12       29.72F HX  80
WATERTOWN      CLOUDY    75  66  72 W14G22    29.72R
MADISON        PTSUNNY   75  64  68 SW8G18    29.73S
MIDDLETON      CLOUDY    75  64  68 SW13G23   29.73S
MONROE         CLOUDY    75  64  69 W21       29.76R
JANESVILLE     PTSUNNY   81  63  54 SW18G24   29.74R HX  82
$$

WIZ051-052-058>065-066-070>072-012000-
SOUTHEAST WISCONSIN

CITY           SKY/WX    TMP DP  RH WIND       PRES   REMARKS
MILWAUKEE      PTSUNNY   81  63  54 W20G25    29.71F HX  82
WAUKESHA       PTSUNNY   77  63  61 SW14      29.73S
MILWAUKEE/TIMM MOSUNNY   81  61  50 SW24G31   29.71F HX  81
RACINE         SUNNY     83  65  54 SW12G21   29.74S HX  85
BURLINGTON     MOSUNNY   79  64  60 SW16G23   29.74S HX  80
KENOSHA        MOSUNNY   81  68  64 SW14G24   29.73F HX  84
FOND DU LAC    CLOUDY    73  64  73 W14G23    29.70S
SHEBOYGAN      CLOUDY    76  65  68 W9        29.69S
WEST BEND      PTSUNNY   77  61  57 SW14G26   29.70S
JUNEAU         CLOUDY    72  65  80 W14G20    29.73S
$$

LSZ147-162-012000-
LAKE SUPERIOR

STATION/POSITION TIME  TEMP    WIND        PRES    WAVE
                       AIR SEA DIR/SP/G            HT/PER
                 (UTC) (F)     (DEG/KT/KT) (MB)    (FT/S)
W MID LAKE BUOY  1750   60 58  250/ 14/ 16 1001.4R   2/ 3
DEVILS ISLAND    1800   63     240/ 16/ 19 1002.8R
PORT WING        1800   66     260/ 11/ 16 1004.4
SAXON HARBOR     1840   68      CALM  /  9 1003.7R
$$

LMZ867-665-643>646-012000-
LAKE MICHIGAN

STATION/POSITION TIME  TEMP    WIND        PRES    WAVE
                       AIR SEA DIR/SP/G            HT/PER
                 (UTC) (F)     (DEG/KT/KT) (MB)    (FT/S)
N MID LAKE BUOY  1750   66 65  240/ 14/ 16 1003.6F   4/ 6
NORTHPORT PIER   1800   68     220/  5/  8 1003.4
KEWAUNEE LAKESHO 1800   71     210/  6/  9 1003.9F
SHEBOYGAN LAKESH 1800   75 58  250/  9/ 12 1005.2F
ATWATER BUOY     1800   72     240/ 14/ 17 1007.2F
MILWAUKEE LAKESH 1800   77     240/ 13/ 17   N/A
S MID LAKE BUOY  1750   71 69  220/  8/  8 1006.9F   3/ 5
KENOSHA   LAKESH 1800   78     240/ 11/ 19 1006.8F
$$

TC  - TEMPERATURE IN CELSIUS
VSB - VISIBILITY IN STATUTE MILES
WCI - WIND CHILL INDEX
HX  - HEAT INDEX




USA.gov is the U.S. government's official web portal to all federal, state and local government web resources and services.